Warroad, MN

10:46 AM CDT on July 23, 2017 (GMT -0500)
Warroad International-Carlson

Weather History for KRRT - March, 2014

Change the Weather History Date:

Friday, March 7, 2014

  Actual Average Record
Temperature  
Mean Temperature 14 °F -  
Max Temperature 24 °F 27 °F 51 °F (1987)
Min Temperature 3 °F 4 °F -27 °F (1967)
Degree Days  
Heating Degree Days 52    
Moisture  
Dew Point 11 °F    
Average Humidity 77    
Maximum Humidity 93    
Minimum Humidity 58    
Precipitation  
Precipitation 0.01 in - - ()
Sea Level Pressure  
Sea Level Pressure 30.03 in    
Wind  
Wind Speed 10 mph (NNW)    
Max Wind Speed 17 mph    
Max Gust Speed 24 mph    
Visibility 9 miles    
Events Snow    
Averages and records for this station are not official NWS values.
T = Trace of Precipitation, MM = Missing Value Source: NWS Daily Summary

Daily Weather History Graph

Daily Weather History Graph

Search for Another Location

Airport or City:

Trip Planner

Search our weather history database for the weather conditions in past years. The results will help you decide how hot, cold, wet, or windy it might be!

Date:

Astronomy

Mar. 07, 2014 Rise Set
Actual Time 6:51 AM CST 6:14 PM CST
Civil Twilight 6:19 AM CST 6:45 PM CST
Nautical Twilight 5:43 AM CST 7:22 PM CST
Astronomical Twilight 5:06 AM CST 7:59 PM CST
Moon 10:13 AM CST (3/7) 12:50 AM CST (3/7)
Length of Visible Light 12h 26m
Length of Day
11h 23m
Waxing Crescent, 42% of the Moon is Illuminated
Mar 7
Waxing Crescent
Mar 8
First Quarter
Mar 16
Full
Mar 23
Last Quarter
Mar 30
New

Hourly Weather History & Observations

Time (CST) Temp. Windchill Dew Point Humidity Pressure Visibility Wind Dir Wind Speed Gust Speed Precip Events Conditions
12:13 AM 23.0 °F 14.7 °F 19.4 °F 86% 29.69 in 3.0 mi NE 6.9 mph - 0.01 in Snow Light Snow
12:34 AM 24.8 °F 17.9 °F 19.4 °F 80% 29.69 in 4.0 mi NNE 5.8 mph - 0.01 in Snow Light Snow
12:54 AM 24.8 °F 17.9 °F 19.4 °F 80% 29.70 in 2.0 mi North 5.8 mph - 0.01 in Snow Light Snow
1:13 AM 23.0 °F 13.9 °F 19.4 °F 86% 29.70 in 4.0 mi North 8.1 mph - N/A Snow Light Snow
1:34 AM 23.0 °F 12.4 °F 19.4 °F 86% 29.71 in 4.0 mi North 10.4 mph - N/A Snow Light Snow
1:54 AM 23.0 °F 11.7 °F 19.4 °F 86% 29.72 in 3.0 mi North 11.5 mph - N/A Snow Light Snow
2:13 AM 23.0 °F 12.4 °F 19.4 °F 86% 29.72 in 2.0 mi North 10.4 mph - N/A Snow Light Snow
2:34 AM 23.0 °F 12.4 °F 19.4 °F 86% 29.72 in 2.5 mi North 10.4 mph - N/A Snow Light Snow
2:54 AM 23.0 °F 13.9 °F 19.4 °F 86% 29.72 in 3.0 mi North 8.1 mph - N/A Snow Light Snow
3:14 AM 23.0 °F 13.9 °F 19.4 °F 86% 29.73 in 4.0 mi NNW 8.1 mph - N/A   Overcast
3:34 AM 21.2 °F 11.7 °F 19.4 °F 93% 29.75 in 5.0 mi NNW 8.1 mph - N/A   Overcast
3:53 AM 21.2 °F 11.7 °F 17.6 °F 86% 29.76 in 5.0 mi NNW 8.1 mph - N/A   Overcast
4:14 AM 21.2 °F 10.9 °F 17.6 °F 86% 29.77 in 7.0 mi NNW 9.2 mph 17.3 mph N/A   Overcast
4:34 AM 21.2 °F 8.9 °F 17.6 °F 86% 29.79 in 5.0 mi NNW 12.7 mph - N/A   Overcast
4:53 AM 21.2 °F 8.3 °F 17.6 °F 86% 29.80 in 7.0 mi NNW 13.8 mph 19.6 mph N/A   Overcast
5:14 AM 21.2 °F 7.8 °F 17.6 °F 86% 29.82 in 10.0 mi NNW 15.0 mph 19.6 mph N/A   Overcast
5:34 AM 21.2 °F 8.3 °F 17.6 °F 86% 29.83 in 10.0 mi North 13.8 mph 17.3 mph N/A   Overcast
5:53 AM 19.4 °F 6.0 °F 17.6 °F 93% 29.84 in 10.0 mi North 13.8 mph 18.4 mph N/A   Overcast
6:14 AM 19.4 °F 5.5 °F 15.8 °F 86% 29.86 in 10.0 mi NNW 15.0 mph 18.4 mph N/A Snow Light Snow
6:34 AM 19.4 °F 6.0 °F 15.8 °F 86% 29.88 in 10.0 mi NNW 13.8 mph - N/A   Overcast
6:54 AM 19.4 °F 7.9 °F 15.8 °F 86% 29.89 in 10.0 mi NNW 10.4 mph - N/A Snow Light Snow
7:14 AM 19.4 °F 6.6 °F 15.8 °F 86% 29.91 in 7.0 mi NNW 12.7 mph - N/A Snow Light Snow
7:34 AM 19.4 °F 6.6 °F 15.8 °F 86% 29.93 in 5.0 mi NNW 12.7 mph 20.7 mph N/A Snow Light Snow
7:54 AM 17.6 °F 4.3 °F 12.2 °F 79% 29.94 in 10.0 mi North 12.7 mph - N/A   Scattered Clouds
8:14 AM 17.6 °F 2.2 °F 12.2 °F 79% 29.95 in 10.0 mi NNW 17.3 mph 21.9 mph N/A   Clear
8:33 AM 17.6 °F 2.7 °F 12.2 °F 79% 29.97 in 10.0 mi North 16.1 mph 24.2 mph N/A   Clear
8:54 AM 17.6 °F 2.2 °F 12.2 °F 79% 29.98 in 10.0 mi North 17.3 mph 21.9 mph N/A   Clear
9:14 AM 17.6 °F 4.3 °F 12.2 °F 79% 30.00 in 10.0 mi North 12.7 mph - N/A   Clear
9:33 AM 17.6 °F 4.3 °F 12.2 °F 79% 30.00 in 10.0 mi North 12.7 mph - N/A   Clear
9:54 AM 17.6 °F 3.7 °F 12.2 °F 79% 30.01 in 10.0 mi North 13.8 mph 18.4 mph N/A   Clear
10:14 AM 17.6 °F 3.2 °F 12.2 °F 79% 30.02 in 10.0 mi North 15.0 mph - N/A   Scattered Clouds
10:33 AM 17.6 °F 4.3 °F 12.2 °F 79% 30.04 in 10.0 mi North 12.7 mph 19.6 mph N/A   Mostly Cloudy
10:54 AM 17.6 °F 3.2 °F 12.2 °F 79% 30.05 in 10.0 mi North 15.0 mph - N/A   Overcast
11:14 AM 19.4 °F 6.6 °F 12.2 °F 74% 30.06 in 10.0 mi North 12.7 mph - N/A   Mostly Cloudy
11:34 AM 19.4 °F 5.5 °F 12.2 °F 74% 30.07 in 10.0 mi North 15.0 mph 20.7 mph N/A   Overcast
11:54 AM 19.4 °F 6.6 °F 12.2 °F 74% 30.07 in 10.0 mi North 12.7 mph - N/A   Overcast
12:14 PM 19.4 °F 6.6 °F 12.2 °F 74% 30.09 in 10.0 mi North 12.7 mph - N/A Snow Light Snow
12:34 PM 19.4 °F 7.9 °F 12.2 °F 74% 30.10 in 10.0 mi NNE 10.4 mph - N/A   Overcast
12:54 PM 21.2 °F 8.9 °F 12.2 °F 68% 30.11 in 10.0 mi North 12.7 mph - N/A   Overcast
1:14 PM 21.2 °F 9.5 °F 12.2 °F 68% 30.11 in 10.0 mi North 11.5 mph - N/A   Overcast
1:34 PM 19.4 °F 8.6 °F 12.2 °F 74% 30.12 in 10.0 mi North 9.2 mph - N/A   Mostly Cloudy
1:54 PM 21.2 °F 10.9 °F 12.2 °F 68% 30.12 in 10.0 mi North 9.2 mph - N/A   Mostly Cloudy
2:13 PM 21.2 °F 10.9 °F 12.2 °F 68% 30.12 in 10.0 mi North 9.2 mph - N/A   Overcast
2:34 PM 21.2 °F 12.6 °F 12.2 °F 68% 30.13 in 10.0 mi NNW 6.9 mph - N/A   Overcast
2:54 PM 21.2 °F 10.9 °F 12.2 °F 68% 30.14 in 10.0 mi North 9.2 mph - N/A   Mostly Cloudy
3:13 PM 21.2 °F 10.9 °F 10.4 °F 63% 30.14 in 10.0 mi North 9.2 mph - N/A   Mostly Cloudy
3:34 PM 23.0 °F 11.1 °F 10.4 °F 59% 30.15 in 10.0 mi North 12.7 mph - N/A   Mostly Cloudy
3:54 PM 23.0 °F 12.4 °F 10.4 °F 59% 30.15 in 10.0 mi NW 10.4 mph 16.1 mph N/A   Mostly Cloudy
4:13 PM 21.2 °F 10.1 °F 10.4 °F 63% 30.16 in 10.0 mi North 10.4 mph - N/A   Scattered Clouds
4:34 PM 21.2 °F 12.6 °F 8.6 °F 58% 30.17 in 10.0 mi NNW 6.9 mph - N/A   Clear
4:54 PM 21.2 °F 10.9 °F 8.6 °F 58% 30.17 in 10.0 mi North 9.2 mph - N/A   Scattered Clouds
5:14 PM 21.2 °F 11.7 °F 8.6 °F 58% 30.18 in 10.0 mi North 8.1 mph - N/A   Clear
5:34 PM 19.4 °F 10.4 °F 8.6 °F 63% 30.19 in 10.0 mi NNW 6.9 mph - N/A   Clear
5:54 PM 17.6 °F 9.3 °F 6.8 °F 63% 30.20 in 10.0 mi NNW 5.8 mph - N/A   Clear
6:14 PM 17.6 °F 10.7 °F 6.8 °F 63% 30.20 in 10.0 mi NNW 4.6 mph - N/A   Clear
6:34 PM 15.8 °F 7.2 °F 6.8 °F 68% 30.21 in 10.0 mi NW 5.8 mph - N/A   Clear
6:53 PM 14.0 °F 3.9 °F 6.8 °F 73% 30.22 in 10.0 mi NW 6.9 mph - N/A   Clear
7:14 PM 14.0 °F 2.9 °F 6.8 °F 73% 30.23 in 10.0 mi NW 8.1 mph - N/A   Clear
7:34 PM 12.2 °F 0.7 °F 5.0 °F 73% 30.24 in 10.0 mi NNW 8.1 mph - N/A   Clear
7:53 PM 10.4 °F -0.4 °F 3.2 °F 73% 30.24 in 10.0 mi NW 6.9 mph - N/A   Clear
8:14 PM 10.4 °F -0.4 °F 3.2 °F 73% 30.25 in 10.0 mi NW 6.9 mph - N/A   Clear
8:34 PM 10.4 °F 0.8 °F 3.2 °F 73% 30.26 in 10.0 mi NNW 5.8 mph - N/A   Clear
8:53 PM 10.4 °F -1.5 °F 3.2 °F 73% 30.27 in 10.0 mi WNW 8.1 mph - N/A   Clear
9:14 PM 8.6 °F -3.7 °F 1.4 °F 73% 30.27 in 10.0 mi NW 8.1 mph - N/A   Clear
9:34 PM 8.6 °F -1.3 °F 1.4 °F 73% 30.27 in 10.0 mi NW 5.8 mph - N/A   Clear
9:53 PM 6.8 °F -3.5 °F -0.4 °F 72% 30.28 in 10.0 mi NW 5.8 mph - N/A   Clear
10:14 PM 6.8 °F -3.5 °F 1.4 °F 79% 30.28 in 10.0 mi WNW 5.8 mph - N/A   Clear
10:34 PM 6.8 °F -4.8 °F 1.4 °F 79% 30.28 in 10.0 mi NW 6.9 mph - N/A   Clear
10:54 PM 3.2 °F -6.2 °F -0.4 °F 85% 30.29 in 10.0 mi NW 4.6 mph - N/A   Clear
11:14 PM 3.2 °F -9.1 °F -0.4 °F 85% 30.29 in 10.0 mi NW 6.9 mph - N/A   Clear
11:34 PM 3.2 °F -7.8 °F -0.4 °F 85% 30.29 in 10.0 mi NW 5.8 mph - N/A   Clear
11:54 PM 3.2 °F -9.1 °F -0.4 °F 85% 30.29 in 10.0 mi WNW 6.9 mph - N/A   Clear